This is the latest recevied weather packets stored in our database for station/object WE8M. If no packets are shown the sender has not sent any weather packets the latest 10 day(s).
| Time | Temp. | Humidity | Pressure | Rain* | Wind** | Luminosity | Snow |
|---|---|---|---|---|---|---|---|
| 1777829739 | 15.56° C | 40% | 1018.5 hPa | 0 mm | - | - | - |
| 1777829435 | 15.56° C | 34% | 1018.6 hPa | 0 mm | - | - | - |
| 1777829133 | 15° C | 42% | 1018.7 hPa | 0 mm | - | - | - |
| 1777828830 | 15° C | 40% | 1018.8 hPa | 0 mm | - | - | - |
| 1777828526 | 15° C | 43% | 1018.8 hPa | 0 mm | - | - | - |
| 1777828224 | 14.44° C | 47% | 1018.8 hPa | 0 mm | - | - | - |
| 1777827920 | 14.44° C | 44% | 1018.9 hPa | 0 mm | - | - | - |
| 1777827618 | 14.44° C | 42% | 1019.2 hPa | 0 mm | - | - | - |
| 1777827315 | 15° C | 46% | 1018.9 hPa | 0 mm | - | - | - |
| 1777827011 | 14.44° C | 42% | 1019.3 hPa | 0 mm | - | - | - |
| 1777826708 | 14.44° C | 46% | 1019.4 hPa | 0 mm | - | - | - |
| 1777826405 | 15° C | 42% | 1019.5 hPa | 0 mm | - | - | - |
| 1777826102 | 15° C | 42% | 1019.4 hPa | 0 mm | - | - | - |
| 1777825798 | 15° C | 41% | 1019.4 hPa | 0 mm | - | - | - |
| 1777825496 | 15.56° C | 39% | 1019.5 hPa | 0 mm | - | - | - |
| 1777825193 | 15° C | 46% | 1019.7 hPa | 0 mm | - | - | - |
| 1777824890 | 14.44° C | 45% | 1019.7 hPa | 0 mm | - | - | - |
| 1777824586 | 14.44° C | 40% | 1019.8 hPa | 0 mm | - | - | - |
| 1777824283 | 14.44° C | 44% | 1019.8 hPa | 0 mm | - | - | - |
| 1777823978 | 14.44° C | 43% | 1020 hPa | 0 mm | - | - | - |
| 1777823676 | 14.44° C | 43% | 1019.9 hPa | 0 mm | - | - | - |
| 1777823373 | 14.44° C | 44% | 1020 hPa | 0 mm | - | - | - |
| 1777823071 | 13.89° C | 46% | 1020.1 hPa | 0 mm | - | - | - |
| 1777822768 | 13.33° C | 47% | 1019.9 hPa | 0 mm | - | - | - |
| 1777822466 | 13.89° C | 47% | 1019.9 hPa | 0 mm | - | - | - |
* Rain latest hour (hover to see other rain measurements)
** Current wind speed in m/s (hover to see current wind gust speed)